Location: St. Louis
(38.6270°N, 90.1994°W)
Time: 02:25:01
(UTC-06:00)

Transit 4A - Pass Details

Date: 05 December 2021
Orbit: 863 x 981 km, 66.8° (Epoch: 24 January)

Event Time Altitude Azimuth Distance (km) Brightness Sun altitude
Rises 17:36:11 0° 176° (S) 3,434 11.1 -10.9°
Reaches altitude 10° 17:38:56 10° 164° (SSE) 2,510 10.2 -11.5°
Maximum altitude 17:43:47 28° 107° (ESE) 1,587 8.7 -12.3°
Enters shadow 17:47:06 17° 62° (ENE) 2,093 9.1 -13.0°
Drops below altitude 10° 17:48:45 10° 50° (NE) 2,575 - -13.3°
Sets 17:51:36 0° 40° (NE) 3,539 - -13.8°
